Вернуться в каталог

DELTA 1 DEB

АктивенLEO
NORAD 42090·DEBRIS·🇺🇸 United States

Запущен Dec 15, 1968 с Vandenberg Space Force Base

Loading…

Ближайшие Пролёты (ближайшие 24 часа)

TLE

СвежийSource: Space-Track

Эпоха: Sep 14, 2026, 20:58 UTC

1 42090U 68114S   26257.87413137  .00000083  00000-0  88807-3 0  9996
2 42090 101.4214  31.8262 0110102  39.1366 111.8149 12.41938461186824

Отслеживайте DELTA 1 DEB в реальном времени с AllMySat

Download on the App Store